GW6438 Weather Reports


Display with metric or nautical units.
time (UTC)temp
F
wind
direction
speed
MPH
gust
MPH
rain 1hr
in
rain 24hr
in
rain mn
in
humidity
%
barometer
mb
20260506073018 51 9 0.0 0.0 0.00 0.00 0.00 91 1011.5
20260506071514 52 9 0.0 5.0 0.00 0.00 0.00 91 1011.4
20260506061508 52 25 1.0 5.0 0.00 0.00 0.00 91 1010.8
20260506044508 54 39 2.0 6.0 0.00 0.00 0.00 88 1010.5
20260506043007 54 22 1.0 4.0 0.00 0.00 0.00 88 1010.4
20260506041505 54 30 0.0 0.0 0.00 0.00 0.00 87 1010.2
20260506040005 55 28 0.0 0.0 0.00 0.00 0.00 86 1010.0
20260506034504 55 28 0.0 1.0 0.00 0.00 0.00 84 1009.8
20260506033005 56 28 0.0 4.0 0.00 0.00 0.00 84 1009.7
20260506031504 56 5 3.0 5.0 0.00 0.00 0.00 82 1009.6
20260506030004 58 121 0.0 1.0 0.00 0.00 0.00 79 1009.4
20260506024507 57 260 0.0 0.0 0.00 0.00 0.00 83 1009.4
20260506023004 57 263 0.0 3.0 0.00 0.00 0.00 81 1009.5
20260506021502 59 350 0.0 3.0 0.00 0.00 0.00 77 1009.6
20260506020003 58 36 3.0 6.0 0.00 0.00 0.00 80 1009.6
20260506014601 58 13 4.0 9.0 0.00 0.00 0.00 80 1009.7
20260506013107 57 34 4.0 9.0 0.00 0.00 0.00 81 1009.7
20260506011607 57 357 4.0 9.0 0.00 0.00 0.00 81 1009.8
20260506010059 58 18 6.0 9.0 0.00 0.00 0.00 80 1009.9
20260506004558 58 360 6.0 9.0 0.00 0.00 0.00 79 1010.0
20260506003056 60 16 6.0 9.0 0.00 0.00 0.00 75 1010.1
20260506001554 60 17 4.0 7.0 0.00 0.00 0.00 77 1010.1
20260506000049 59 251 1.0 6.0 0.00 0.00 0.00 77 1010.2
20260505234545 60 22 4.0 5.0 0.00 0.00 0.00 77 1010.4
20260505233040 59 269 3.0 5.0 0.00 0.00 0.00 78 1010.7
20260505231542 60 1 3.0 5.0 0.00 0.00 0.00 76 1010.7
20260505230036 59 331 1.0 5.0 0.00 0.00 0.00 80 1010.9
20260505224529 58 214 5.0 9.0 0.00 0.00 0.00 80 1011.1
20260505223030 58 197 5.0 9.0 0.00 0.00 0.00 80 1011.3
20260505221525 58 219 6.0 11.0 0.00 0.00 0.00 81 1011.4
20260505220021 57 197 6.0 11.0 0.00 0.00 0.00 81 1011.5
20260505214529 57 183 7.0 12.0 0.00 0.00 0.00 81 1011.6
20260505213019 57 207 6.0 12.0 0.00 0.00 0.00 81 1011.7
20260505211518 57 218 5.0 9.0 0.00 0.00 0.00 81 1011.8
20260505210017 57 217 5.0 10.0 0.00 0.00 0.00 82 1011.8
20260505204517 57 215 4.0 11.0 0.00 0.00 0.00 82 1011.9
20260505203015 57 251 3.0 8.0 0.00 0.00 0.00 81 1012.0
20260505201515 57 259 4.0 11.0 0.00 0.00 0.00 82 1012.0
20260505200015 57 218 5.0 9.0 0.00 0.00 0.00 81 1011.9
20260505194514 57 222 5.0 12.0 0.00 0.00 0.00 81 1011.9
20260505193012 57 192 5.0 11.0 0.00 0.00 0.00 81 1012.0
20260505191514 56 213 4.0 9.0 0.00 0.00 0.00 82 1012.0
20260505190017 56 237 4.0 9.0 0.00 0.00 0.00 82 1011.9
20260505184512 56 229 5.0 10.0 0.00 0.00 0.00 83 1012.0
20260505183009 56 192 6.0 9.0 0.00 0.00 0.00 83 1011.9
20260505181507 56 195 4.0 10.0 0.00 0.00 0.00 83 1011.9
20260505180011 56 226 3.0 10.0 0.00 0.00 0.00 83 1011.8
20260505174508 56 214 4.0 9.0 0.00 0.00 0.00 83 1011.7
20260505173004 56 227 6.0 11.0 0.00 0.00 0.00 83 1011.7
20260505171506 55 224 3.0 9.0 0.00 0.00 0.00 84 1011.6
20260505170007 55 321 0.0 5.0 0.00 0.00 0.00 87 1011.6
20260505164502 54 241 1.0 3.0 0.00 0.00 0.00 87 1011.4
20260505163101 54 240 0.0 0.0 0.00 0.00 0.00 87 1011.3
20260505161606 54 240 0.0 2.0 0.00 0.00 0.00 88 1011.3
20260505153102 52 17 2.0 6.0 0.00 0.00 0.00 91 1011.1
20260505151604 52 15 4.0 7.0 0.00 0.00 0.00 92 1010.9
20260505140107 51 21 1.0 3.0 0.00 0.00 0.00 92 1009.9
20260505124537 51 149 0.0 0.0 0.00 0.00 0.00 90 1009.0
20260505123037 51 145 0.0 0.0 0.00 0.00 0.00 90 1008.9
20260505121538 51 177 0.0 0.0 0.00 0.00 0.00 90 1008.7
20260505120043 51 176 0.0 0.0 0.00 0.00 0.00 89 1008.7
20260505114534 51 121 0.0 0.0 0.00 0.00 0.00 89 1008.5
20260505113028 52 85 0.0 0.0 0.00 0.00 0.00 89 1008.5
20260505111526 52 85 0.0 0.0 0.00 0.00 0.00 89 1008.4
20260505101518 52 66 0.0 0.0 0.00 0.00 0.00 88 1007.6
20260505100016 53 70 0.0 0.0 0.00 0.00 0.00 87 1007.4
20260505094512 53 69 0.0 0.0 0.00 0.00 0.00 86 1007.4
20260505093009 54 67 0.0 0.0 0.00 0.00 0.00 85 1007.1
20260505091507 55 67 0.0 3.0 0.00 0.00 0.00 84 1007.0
20260505090014 55 70 4.0 7.0 0.00 0.00 0.00 83 1007.0
20260505084503 55 36 0.0 0.0 0.00 0.00 0.00 83 1006.8
20260505083103 56 91 0.0 2.0 0.00 0.00 0.00 83 1006.7
20260505081606 55 82 0.0 0.0 0.00 0.00 0.00 83 1006.5